User: anonymous   Login
Location: Unspecified
(0.0000°N, 0.0000°E)
Time: 14:44:55
(UTC+00:00)
Language:

Nadezhda 1 - Orbit

View from above orbital plane
View from above orbital plane
View from above satellite
View from above satellite

Ground track
Ground track

The orbit data is extracted from the following two-line orbital elements,

1 20103U 89050A   17206.08144708 +.00000026 +00000-0 +11532-4 0  9990
2 20103 082.9606 180.7924 0037734 167.9509 245.3224 13.74548998407068
Epoch (UTC): 25 July 2017 01:57:17
Eccentricity: 0.0037734
inclination: 82.9606°
perigee height: 955 km
apogee height: 1011 km
right ascension of ascending node: 180.7924°
argument of perigee: 167.9509°
revolutions per day: 13.74548998
mean anomaly at epoch: 245.3224°
orbit number at epoch: 40706

The dashed part of the orbit path shows where the satellite is in the earth's shadow,  

DLR